OM6ACB-6 Weather Reports


Display with metric or nautical units.
time (UTC)temp
F
wind
direction
speed
MPH
gust
MPH
rain 1hr
in
rain 24hr
in
rain mn
in
humidity
%
barometer
mb
20260502181257 59 48 0.0 1.0 0.00 0.00 0.00 25 1022.5
20260502180257 62 48 1.0 2.0 0.00 0.00 0.00 24 1022.6
20260502170255 68 128 3.0 6.0 0.00 0.00 0.00 23 1023.1
20260502164254 71 133 5.0 8.0 0.00 0.00 0.00 22 1023.4
20260502163254 72 128 4.0 6.0 0.00 0.00 0.00 21 1023.5
20260502162254 73 140 6.0 14.0 0.00 0.00 0.00 21 1023.6
20260502161254 73 130 6.0 7.0 0.00 0.00 0.00 21 1023.6
20260502160253 73 125 6.0 8.0 0.00 0.00 0.00 21 1023.7
20260502152252 75 142 5.0 9.0 0.00 0.00 0.00 20 1024.0
20260502151252 74 136 4.0 5.0 0.00 0.00 0.00 21 1024.1
20260502150251 76 139 4.0 5.0 0.00 0.00 0.00 20 1024.3
20260502130248 76 148 7.0 11.0 0.00 0.00 0.00 20 1025.2
20260502123247 75 167 4.0 10.0 0.00 0.00 0.00 21 1025.6
20260502122247 76 114 3.0 8.0 0.00 0.00 0.00 20 1026.0
20260502121247 76 148 5.0 8.0 0.00 0.00 0.00 20 1026.0
20260502120246 75 169 4.0 8.0 0.00 0.00 0.00 21 1026.2
20260502115246 78 123 4.0 14.0 0.00 0.00 0.00 20 1026.6
20260502114246 72 80 4.0 6.0 0.00 0.00 0.00 21 1026.2
20260502113245 72 60 4.0 9.0 0.00 0.00 0.00 22 1026.2
20260502112245 74 91 3.0 6.0 0.00 0.00 0.00 21 1026.5
20260502111245 74 90 3.0 6.0 0.00 0.00 0.00 21 1026.6
20260502110244 72 118 5.0 6.0 0.00 0.00 0.00 22 1026.5
20260502105244 71 136 7.0 7.0 0.00 0.00 0.00 22 1026.6
20260502104244 72 119 6.0 9.0 0.00 0.00 0.00 21 1026.8
20260502103243 70 86 5.0 9.0 0.00 0.00 0.00 22 1026.8
20260502102243 72 101 5.0 9.0 0.00 0.00 0.00 21 1027.0
20260502101243 71 143 7.0 8.0 0.00 0.00 0.00 22 1027.0
20260502100243 70 106 5.0 6.0 0.00 0.00 0.00 22 1027.0
20260502091241 68 96 4.0 8.0 0.00 0.00 0.00 22 1027.4
20260502090241 67 125 4.0 7.0 0.00 0.00 0.00 23 1027.5
20260502071208 57 159 2.0 4.0 0.00 0.00 0.00 25 1027.4
20260502070207 54 149 3.0 4.0 0.00 0.00 0.00 26 1027.3
20260502065207 55 179 2.0 3.0 0.00 0.00 0.00 26 1027.3
20260502064207 53 179 2.0 3.0 0.00 0.00 0.00 27 1027.3
20260502063207 56 113 0.0 2.0 0.00 0.00 0.00 26 1027.5
20260502062206 51 105 0.0 2.0 0.00 0.00 0.00 27 1027.4
20260502061206 52 312 0.0 2.0 0.00 0.00 0.00 27 1027.3
20260502060206 50 178 0.0 1.0 0.00 0.00 0.00 28 1027.1
20260502055205 48 181 0.0 0.0 0.00 0.00 0.00 28 1027.0
20260502054205 49 0 0.0 0.0 0.00 0.00 0.00 28 1027.1
20260502053205 47 0 0.0 0.0 0.00 0.00 0.00 28 1026.8
20260502052204 46 0 0.0 0.0 0.00 0.00 0.00 29 1026.8
20260502051204 45 0 0.0 0.0 0.00 0.00 0.00 29 1026.6
20260502050204 42 0 0.0 0.0 0.00 0.00 0.00 30 1026.3
20260502045204 42 0 0.0 0.0 0.00 0.00 0.00 30 1026.3
20260502044203 40 0 0.0 0.0 0.00 0.00 0.00 30 1026.1
20260502043203 39 0 0.0 0.0 0.00 0.00 0.00 31 1026.1
20260502042203 38 0 0.0 0.0 0.00 0.00 0.00 31 1025.8
20260502041202 37 0 0.0 0.0 0.00 0.00 0.00 31 1025.7
20260502040202 36 0 0.0 0.0 0.00 0.00 0.00 36 1025.7
20260502035202 34 0 0.0 0.0 0.00 0.00 0.00 61 1025.4
20260502034202 32 0 0.0 0.0 0.00 0.00 0.00 64 1025.2
20260502033201 31 0 0.0 0.0 0.00 0.00 0.00 64 1025.0
20260502032201 31 0 0.0 0.0 0.00 0.00 0.00 64 1025.1
20260502031201 32 0 0.0 0.0 0.00 0.00 0.00 64 1025.1
20260502030200 33 0 0.0 0.0 0.00 0.00 0.00 63 1025.1
20260502025200 33 0 0.0 0.0 0.00 0.00 0.00 64 1025.2
20260502024200 33 0 0.0 0.0 0.00 0.00 0.00 64 1025.3
20260502023159 33 0 0.0 0.0 0.00 0.00 0.00 63 1025.1
20260502022159 34 0 0.0 0.0 0.00 0.00 0.00 64 1025.3
20260502021159 34 0 0.0 0.0 0.00 0.00 0.00 64 1025.1
20260502020159 33 0 0.0 0.0 0.00 0.00 0.00 63 1025.1
20260502015158 33 0 0.0 0.0 0.00 0.00 0.00 63 1025.1
20260502014158 32 0 0.0 0.0 0.00 0.00 0.00 62 1025.2
20260502013158 33 0 0.0 0.0 0.00 0.00 0.00 60 1025.2
20260502012157 34 0 0.0 0.0 0.00 0.00 0.00 61 1025.3
20260502011157 34 0 0.0 0.0 0.00 0.00 0.00 59 1025.3
20260502010157 34 0 0.0 0.0 0.00 0.00 0.00 58 1025.5
20260502005157 35 0 0.0 0.0 0.00 0.00 0.00 56 1025.5
20260502004156 35 0 0.0 0.0 0.00 0.00 0.00 54 1025.6
20260502003156 35 0 0.0 0.0 0.00 0.00 0.00 55 1025.6
20260502002156 35 0 0.0 0.0 0.00 0.00 0.00 54 1025.6
20260502001155 35 0 0.0 0.0 0.00 0.00 0.00 54 1025.6
20260502000155 35 0 0.0 0.0 0.00 0.00 0.00 53 1025.7
20260501235155 35 0 0.0 0.0 0.00 0.00 0.00 52 1025.6
20260501234154 36 0 0.0 0.0 0.00 0.00 0.00 51 1025.7
20260501233154 36 0 0.0 0.0 0.00 0.00 0.00 49 1025.8
20260501232154 37 0 0.0 0.0 0.00 0.00 0.00 51 1025.9
20260501231154 36 0 0.0 0.0 0.00 0.00 0.00 50 1025.8
20260501230153 37 0 0.0 0.0 0.00 0.00 0.00 47 1025.8
20260501225153 37 0 0.0 0.0 0.00 0.00 0.00 45 1025.8
20260501224153 38 0 0.0 0.0 0.00 0.00 0.00 41 1025.8
20260501223152 39 0 0.0 0.0 0.00 0.00 0.00 40 1026.0
20260501222152 38 0 0.0 0.0 0.00 0.00 0.00 42 1025.9
20260501221152 38 0 0.0 0.0 0.00 0.00 0.00 38 1025.8
20260501220152 40 0 0.0 0.0 0.00 0.00 0.00 34 1025.9
20260501215151 41 0 0.0 0.0 0.00 0.00 0.00 31 1026.0
20260501214151 41 0 0.0 0.0 0.00 0.00 0.00 32 1026.0
20260501213151 42 0 0.0 0.0 0.00 0.00 0.00 32 1026.0
20260501212150 43 0 0.0 0.0 0.00 0.00 0.00 29 1026.1
20260501211150 44 0 0.0 0.0 0.00 0.00 0.00 29 1026.1
20260501210150 43 0 0.0 0.0 0.00 0.00 0.00 29 1026.0
20260501205149 42 0 0.0 0.0 0.00 0.00 0.00 32 1025.9
20260501204149 42 0 0.0 0.0 0.00 0.00 0.00 31 1025.9
20260501203149 43 0 0.0 0.0 0.00 0.00 0.00 29 1025.9
20260501202149 45 0 0.0 0.0 0.00 0.00 0.00 29 1026.1
20260501201148 45 0 0.0 0.0 0.00 0.00 0.00 29 1026.2
20260501200148 46 0 0.0 0.0 0.00 0.00 0.00 29 1026.2
20260501195148 46 0 0.0 0.0 0.00 0.00 0.00 29 1026.2
20260501194147 47 0 0.0 0.0 0.00 0.00 0.00 28 1026.2
20260501193147 47 0 0.0 0.0 0.00 0.00 0.00 28 1026.2
20260501192147 49 0 0.0 0.0 0.00 0.00 0.00 28 1026.2
20260501191147 50 0 0.0 0.0 0.00 0.00 0.00 27 1026.4
20260501190146 51 0 0.0 0.0 0.00 0.00 0.00 27 1026.5
20260501185146 52 0 0.0 0.0 0.00 0.00 0.00 27 1026.4
20260501184146 52 0 0.0 0.0 0.00 0.00 0.00 27 1026.4
20260501183145 53 0 0.0 0.0 0.00 0.00 0.00 27 1026.4
20260501182145 54 0 0.0 0.0 0.00 0.00 0.00 27 1026.3